Time,TemperatureF,DewpointF,PressureIn,WindDirection,WindDirectionDegrees,WindSpeedMPH,WindSpeedGustMPH,Humidity,HourlyPrecipIn,Conditions,Clouds,dailyrainin,SoftwareType,DateUTC
2013-07-25 00:05:00,51.0,50.0,30.02,WNW,283,0.0,0.0,97,0.00,,,0.00,weatherlink.com 1.10,2013-07-25 04:05:00,
2013-07-25 00:20:00,50.6,50.0,30.03,WNW,283,0.0,0.0,97,0.00,,,0.00,weatherlink.com 1.10,2013-07-25 04:20:00,
2013-07-25 00:35:00,50.9,50.0,30.03,WNW,283,0.0,0.0,98,0.00,,,0.00,weatherlink.com 1.10,2013-07-25 04:35:00,
2013-07-25 00:50:00,50.4,50.0,30.04,WNW,283,0.0,0.0,98,0.00,,,0.00,weatherlink.com 1.10,2013-07-25 04:50:00,
2013-07-25 01:05:00,50.8,50.0,30.03,WNW,283,0.0,1.0,98,0.00,,,0.00,weatherlink.com 1.10,2013-07-25 05:05:00,
2013-07-25 01:20:00,50.4,50.0,30.03,WNW,283,0.0,0.0,98,0.00,,,0.00,weatherlink.com 1.10,2013-07-25 05:20:00,
2013-07-25 01:35:00,50.2,50.0,30.03,WNW,283,0.0,0.0,98,0.00,,,0.00,weatherlink.com 1.10,2013-07-25 05:35:00,
2013-07-25 01:50:00,49.9,49.0,30.03,WNW,283,0.0,1.0,98,0.00,,,0.00,weatherlink.com 1.10,2013-07-25 05:50:00,
2013-07-25 02:05:00,50.3,50.0,30.03,WNW,283,0.0,1.0,98,0.00,,,0.00,weatherlink.com 1.10,2013-07-25 06:05:00,
2013-07-25 02:20:00,49.8,49.0,30.03,WNW,283,0.0,0.0,98,0.00,,,0.00,weatherlink.com 1.10,2013-07-25 06:20:00,
2013-07-25 02:35:00,49.4,49.0,30.02,WNW,283,0.0,0.0,98,0.00,,,0.00,weatherlink.com 1.10,2013-07-25 06:35:00,
2013-07-25 02:50:00,48.6,48.0,30.03,WNW,283,0.0,0.0,98,0.00,,,0.00,weatherlink.com 1.10,2013-07-25 06:50:00,
2013-07-25 03:05:00,48.2,48.0,30.03,WNW,283,0.0,0.0,98,0.00,,,0.00,weatherlink.com 1.10,2013-07-25 07:05:00,
2013-07-25 03:20:00,48.8,48.0,30.02,WNW,283,0.0,0.0,98,0.00,,,0.00,weatherlink.com 1.10,2013-07-25 07:20:00,
2013-07-25 03:36:00,48.7,48.0,30.02,WNW,283,0.0,0.0,98,0.00,,,0.00,weatherlink.com 1.10,2013-07-25 07:36:00,
2013-07-25 03:51:00,48.3,48.0,30.03,WNW,283,0.0,0.0,98,0.00,,,0.00,weatherlink.com 1.10,2013-07-25 07:51:00,
2013-07-25 04:06:00,48.1,48.0,30.03,WNW,283,0.0,0.0,98,0.00,,,0.00,weatherlink.com 1.10,2013-07-25 08:06:00,
2013-07-25 04:21:00,48.0,48.0,30.03,WNW,283,0.0,0.0,98,0.00,,,0.00,weatherlink.com 1.10,2013-07-25 08:21:00,
2013-07-25 04:36:00,47.3,47.0,30.03,WNW,283,0.0,0.0,98,0.00,,,0.00,weatherlink.com 1.10,2013-07-25 08:36:00,
2013-07-25 04:51:00,47.5,47.0,30.03,WNW,283,0.0,0.0,98,0.00,,,0.00,weatherlink.com 1.10,2013-07-25 08:51:00,
2013-07-25 05:06:00,47.1,47.0,30.04,WNW,283,0.0,0.0,98,0.00,,,0.00,weatherlink.com 1.10,2013-07-25 09:06:00,
2013-07-25 05:21:00,47.2,47.0,30.04,WNW,283,0.0,0.0,98,0.00,,,0.00,weatherlink.com 1.10,2013-07-25 09:21:00,
2013-07-25 05:36:00,46.8,46.0,30.05,WNW,283,0.0,0.0,98,0.00,,,0.00,weatherlink.com 1.10,2013-07-25 09:36:00,
2013-07-25 05:51:00,46.6,46.0,30.05,WNW,283,0.0,0.0,98,0.00,,,0.00,weatherlink.com 1.10,2013-07-25 09:51:00,
2013-07-25 06:21:00,47.4,47.0,30.06,WNW,283,0.0,0.0,98,0.00,,,0.00,weatherlink.com 1.10,2013-07-25 10:21:00,
2013-07-25 06:51:00,51.8,51.0,30.07,WNW,283,0.0,0.0,98,0.00,,,0.00,weatherlink.com 1.10,2013-07-25 10:51:00,
2013-07-25 07:06:00,53.6,53.0,30.07,WNW,283,0.0,0.0,97,0.00,,,0.00,weatherlink.com 1.10,2013-07-25 11:06:00,
2013-07-25 07:21:00,54.6,54.0,30.07,WNW,283,0.0,0.0,96,0.00,,,0.00,weatherlink.com 1.10,2013-07-25 11:21:00,
2013-07-25 07:36:00,55.1,54.0,30.07,WNW,283,0.0,1.0,94,0.00,,,0.00,weatherlink.com 1.10,2013-07-25 11:36:00,
2013-07-25 07:51:00,56.3,54.0,30.07,WNW,283,0.0,1.0,91,0.00,,,0.00,weatherlink.com 1.10,2013-07-25 11:51:00,
2013-07-25 08:06:00,60.1,55.0,30.08,WNW,283,0.0,1.0,84,0.00,,,0.00,weatherlink.com 1.10,2013-07-25 12:06:00,
2013-07-25 08:21:00,62.4,57.0,30.07,WNW,283,0.0,0.0,81,0.00,,,0.00,weatherlink.com 1.10,2013-07-25 12:21:00,
2013-07-25 08:36:00,62.8,55.0,30.08,WNW,283,0.0,1.0,75,0.00,,,0.00,weatherlink.com 1.10,2013-07-25 12:36:00,
2013-07-25 08:51:00,63.1,57.0,30.08,WNW,283,1.0,1.0,79,0.00,,,0.00,weatherlink.com 1.10,2013-07-25 12:51:00,
2013-07-25 09:06:00,65.0,53.0,30.09,SSE,152,0.0,2.0,66,0.00,,,0.00,weatherlink.com 1.10,2013-07-25 13:06:00,
2013-07-25 09:21:00,65.4,55.0,30.09,ENE,77,2.0,3.0,68,0.00,,,0.00,weatherlink.com 1.10,2013-07-25 13:21:00,
2013-07-25 09:36:00,66.0,56.0,30.10,SSE,164,0.0,3.0,69,0.00,,,0.00,weatherlink.com 1.10,2013-07-25 13:36:00,
2013-07-25 09:51:00,66.5,56.0,30.10,SE,129,2.0,3.0,68,0.00,,,0.00,weatherlink.com 1.10,2013-07-25 13:51:00,
2013-07-25 10:07:00,66.8,55.0,30.10,SE,146,1.0,4.0,67,0.00,,,0.00,weatherlink.com 1.10,2013-07-25 14:07:00,
2013-07-25 10:22:00,67.4,56.0,30.11,NE,55,1.0,5.0,67,0.00,,,0.00,weatherlink.com 1.10,2013-07-25 14:22:00,
2013-07-25 10:37:00,68.3,57.0,30.10,WNW,289,1.0,6.0,67,0.00,,,0.00,weatherlink.com 1.10,2013-07-25 14:37:00,
2013-07-25 10:52:00,67.8,56.0,30.10,ESE,104,3.0,6.0,66,0.00,,,0.00,weatherlink.com 1.10,2013-07-25 14:52:00,
2013-07-25 11:07:00,67.6,58.0,30.10,North,356,1.0,5.0,71,0.00,,,0.00,weatherlink.com 1.10,2013-07-25 15:07:00,
2013-07-25 11:22:00,68.0,56.0,30.10,ESE,112,0.0,6.0,66,0.00,,,0.00,weatherlink.com 1.10,2013-07-25 15:22:00,
2013-07-25 11:37:00,69.2,57.0,30.10,ESE,117,1.0,4.0,66,0.00,,,0.00,weatherlink.com 1.10,2013-07-25 15:37:00,
2013-07-25 11:52:00,68.9,54.0,30.10,NE,46,1.0,7.0,59,0.00,,,0.00,weatherlink.com 1.10,2013-07-25 15:52:00,
2013-07-25 12:07:00,68.5,56.0,30.11,NE,42,1.0,5.0,65,0.00,,,0.00,weatherlink.com 1.10,2013-07-25 16:07:00,
2013-07-25 12:22:00,68.7,55.0,30.10,ENE,73,2.0,5.0,62,0.00,,,0.00,weatherlink.com 1.10,2013-07-25 16:22:00,
2013-07-25 12:37:00,71.1,59.0,30.09,ESE,115,2.0,4.0,65,0.00,,,0.00,weatherlink.com 1.10,2013-07-25 16:37:00,
2013-07-25 12:53:00,70.5,56.0,30.09,NNE,28,3.0,4.0,60,0.00,,,0.00,weatherlink.com 1.10,2013-07-25 16:53:00,
2013-07-25 13:07:00,70.9,55.0,30.09,NE,37,1.0,9.0,57,0.00,,,0.00,weatherlink.com 1.10,2013-07-25 17:07:00,
2013-07-25 13:22:00,71.6,52.0,30.09,ENE,71,5.0,7.0,50,0.00,,,0.00,weatherlink.com 1.10,2013-07-25 17:22:00,
2013-07-25 13:37:00,71.6,52.0,30.09,NW,323,1.0,7.0,50,0.00,,,0.00,weatherlink.com 1.10,2013-07-25 17:37:00,
2013-07-25 13:52:00,71.5,53.0,30.09,East,94,3.0,4.0,52,0.00,,,0.00,weatherlink.com 1.10,2013-07-25 17:52:00,
2013-07-25 14:07:00,71.0,52.0,30.09,East,86,6.0,8.0,52,0.00,,,0.00,weatherlink.com 1.10,2013-07-25 18:07:00,
2013-07-25 14:22:00,72.2,52.0,30.09,NNE,21,2.0,5.0,50,0.00,,,0.00,weatherlink.com 1.10,2013-07-25 18:22:00,
2013-07-25 14:37:00,71.8,54.0,30.09,ESE,120,2.0,6.0,53,0.00,,,0.00,weatherlink.com 1.10,2013-07-25 18:37:00,
2013-07-25 14:52:00,72.3,55.0,30.08,East,91,3.0,6.0,55,0.00,,,0.00,weatherlink.com 1.10,2013-07-25 18:52:00,
2013-07-25 15:07:00,72.1,52.0,30.08,NNW,331,3.0,5.0,49,0.00,,,0.00,weatherlink.com 1.10,2013-07-25 19:07:00,
2013-07-25 15:22:00,72.3,50.0,30.08,ESE,111,3.0,6.0,46,0.00,,,0.00,weatherlink.com 1.10,2013-07-25 19:22:00,
2013-07-25 15:37:00,72.2,56.0,30.09,NNE,26,0.0,8.0,57,0.00,,,0.00,weatherlink.com 1.10,2013-07-25 19:37:00,
2013-07-25 15:52:00,71.9,55.0,30.08,ENE,69,3.0,6.0,56,0.00,,,0.00,weatherlink.com 1.10,2013-07-25 19:52:00,
2013-07-25 16:07:00,72.4,53.0,30.08,East,86,1.0,4.0,50,0.00,,,0.00,weatherlink.com 1.10,2013-07-25 20:07:00,
2013-07-25 16:22:00,72.0,51.0,30.07,North,356,0.0,4.0,47,0.00,,,0.00,weatherlink.com 1.10,2013-07-25 20:22:00,
2013-07-25 16:37:00,72.2,55.0,30.07,NE,54,0.0,5.0,55,0.00,,,0.00,weatherlink.com 1.10,2013-07-25 20:37:00,
2013-07-25 16:52:00,72.3,54.0,30.07,NW,317,2.0,5.0,53,0.00,,,0.00,weatherlink.com 1.10,2013-07-25 20:52:00,
2013-07-25 17:07:00,72.4,55.0,30.07,NE,44,0.0,4.0,55,0.00,,,0.00,weatherlink.com 1.10,2013-07-25 21:07:00,
2013-07-25 17:22:00,72.1,55.0,30.07,NNW,327,1.0,5.0,55,0.00,,,0.00,weatherlink.com 1.10,2013-07-25 21:22:00,
2013-07-25 17:37:00,72.2,54.0,30.07,North,7,1.0,5.0,54,0.00,,,0.00,weatherlink.com 1.10,2013-07-25 21:37:00,
2013-07-25 17:52:00,71.7,56.0,30.08,NNW,336,1.0,5.0,59,0.00,,,0.00,weatherlink.com 1.10,2013-07-25 21:52:00,
2013-07-25 18:08:00,71.6,54.0,30.07,SE,125,1.0,5.0,54,0.00,,,0.00,weatherlink.com 1.10,2013-07-25 22:08:00,
2013-07-25 18:22:00,71.3,55.0,30.07,SE,137,2.0,4.0,56,0.00,,,0.00,weatherlink.com 1.10,2013-07-25 22:22:00,
2013-07-25 18:37:00,70.9,55.0,30.08,NNW,345,0.0,4.0,57,0.00,,,0.00,weatherlink.com 1.10,2013-07-25 22:37:00,
2013-07-25 18:52:00,71.0,54.0,30.08,ENE,75,1.0,3.0,56,0.00,,,0.00,weatherlink.com 1.10,2013-07-25 22:52:00,
2013-07-25 19:08:00,71.2,55.0,30.08,NNW,343,0.0,1.0,57,0.00,,,0.00,weatherlink.com 1.10,2013-07-25 23:08:00,
2013-07-25 19:22:00,71.0,55.0,30.08,WNW,295,0.0,1.0,57,0.00,,,0.00,weatherlink.com 1.10,2013-07-25 23:22:00,
2013-07-25 19:38:00,70.4,55.0,30.08,ESE,106,0.0,2.0,59,0.00,,,0.00,weatherlink.com 1.10,2013-07-25 23:38:00,
2013-07-25 19:52:00,69.8,55.0,30.07,ESE,110,0.0,3.0,60,0.00,,,0.00,weatherlink.com 1.10,2013-07-25 23:52:00,
2013-07-25 20:07:00,69.1,55.0,30.08,ESE,110,0.0,0.0,61,0.00,,,0.00,weatherlink.com 1.10,2013-07-26 00:07:00,
2013-07-25 20:22:00,65.8,55.0,30.08,ESE,110,0.0,0.0,69,0.00,,,0.00,weatherlink.com 1.10,2013-07-26 00:22:00,
2013-07-25 20:37:00,62.6,56.0,30.08,ESE,110,0.0,0.0,79,0.00,,,0.00,weatherlink.com 1.10,2013-07-26 00:37:00,
2013-07-25 20:52:00,60.2,55.0,30.07,ESE,110,0.0,0.0,83,0.00,,,0.00,weatherlink.com 1.10,2013-07-26 00:52:00,
2013-07-25 21:07:00,58.6,55.0,30.08,ESE,110,0.0,0.0,89,0.00,,,0.00,weatherlink.com 1.10,2013-07-26 01:07:00,
2013-07-25 21:22:00,57.5,55.0,30.08,ESE,110,0.0,0.0,90,0.00,,,0.00,weatherlink.com 1.10,2013-07-26 01:22:00,
2013-07-25 21:37:00,56.8,55.0,30.08,ESE,110,0.0,0.0,93,0.00,,,0.00,weatherlink.com 1.10,2013-07-26 01:37:00,
2013-07-25 21:52:00,56.5,55.0,30.08,ESE,110,0.0,1.0,94,0.00,,,0.00,weatherlink.com 1.10,2013-07-26 01:52:00,
2013-07-25 22:07:00,56.1,55.0,30.08,ESE,110,0.0,0.0,95,0.00,,,0.00,weatherlink.com 1.10,2013-07-26 02:07:00,
2013-07-25 22:23:00,55.4,54.0,30.09,ESE,110,0.0,0.0,95,0.00,,,0.00,weatherlink.com 1.10,2013-07-26 02:23:00,
2013-07-25 22:37:00,55.1,54.0,30.09,ESE,110,0.0,0.0,96,0.00,,,0.00,weatherlink.com 1.10,2013-07-26 02:37:00,
2013-07-25 22:52:00,54.8,54.0,30.09,ESE,110,0.0,0.0,96,0.00,,,0.00,weatherlink.com 1.10,2013-07-26 02:52:00,
2013-07-25 23:07:00,54.9,54.0,30.09,ESE,110,0.0,0.0,97,0.00,,,0.00,weatherlink.com 1.10,2013-07-26 03:07:00,
2013-07-25 23:22:00,53.8,53.0,30.09,ESE,110,0.0,1.0,96,0.00,,,0.00,weatherlink.com 1.10,2013-07-26 03:22:00,
2013-07-25 23:38:00,53.6,53.0,30.09,ESE,110,0.0,0.0,97,0.00,,,0.00,weatherlink.com 1.10,2013-07-26 03:38:00,
2013-07-25 23:53:00,53.5,53.0,30.09,ESE,110,0.0,0.0,97,0.00,,,0.00,weatherlink.com 1.10,2013-07-26 03:53:00,